GEFSSE_prec_meanprecacc_030.txt.gz
Total_Precipitation_Accumulation
0.00 0.00 0.04 0.02 0.00 0.00 0.00 0.02 0.04 0.06 0.09 0.09 0.08 0.09 0.09 0.07 0.07 0.07 0.04 0.02 0.01 0.01 0.04 0.05 0.06 0.06 0.05 0.05 0.04 0.02 0.01 0.00 0.00 0.00 0.00 0.00 0.00 0.00 0.00 0.00 0.00 0.00 0.00
0.00 0.00 0.03 0.02 0.00 0.00 0.01 0.02 0.03 0.03 0.05 0.08 0.08 0.11 0.12 0.08 0.07 0.06 0.04 0.02 0.01 0.01 0.02 0.03 0.03 0.04 0.05 0.04 0.03 0.01 0.00 0.00 0.00 0.00 0.00 0.00 0.00 0.00 0.00 0.00 0.00 0.00 0.00
0.00 0.01 0.02 0.02 0.01 0.00 0.01 0.03 0.04 0.03 0.02 0.03 0.06 0.09 0.11 0.13 0.10 0.06 0.04 0.02 0.01 0.01 0.01 0.01 0.01 0.02 0.02 0.02 0.01 0.01 0.00 0.00 0.00 0.00 0.00 0.00 0.00 0.00 0.00 0.00 0.00 0.00 0.00
0.00 0.00 0.01 0.01 0.01 0.00 0.01 0.02 0.04 0.04 0.03 0.04 0.09 0.10 0.09 0.10 0.09 0.07 0.06 0.04 0.04 0.02 0.01 0.01 0.01 0.01 0.01 0.00 0.00 0.00 0.00 0.00 0.00 0.00 0.01 0.02 0.02 0.00 0.00 0.00 0.00 0.00 0.00
0.00 0.00 0.00 0.01 0.01 0.01 0.01 0.02 0.04 0.06 0.05 0.06 0.09 0.10 0.07 0.08 0.09 0.08 0.09 0.10 0.07 0.04 0.02 0.01 0.01 0.01 0.01 0.01 0.00 0.00 0.00 0.00 0.00 0.00 0.02 0.05 0.05 0.02 0.00 0.00 0.01 0.01 0.00
0.00 0.00 0.00 0.01 0.01 0.00 0.01 0.01 0.03 0.05 0.06 0.07 0.09 0.09 0.09 0.11 0.10 0.06 0.09 0.10 0.07 0.04 0.02 0.04 0.03 0.03 0.02 0.01 0.01 0.01 0.01 0.01 0.01 0.01 0.01 0.02 0.04 0.03 0.00 0.01 0.02 0.03 0.02
0.00 0.00 0.01 0.01 0.01 0.00 0.00 0.01 0.01 0.02 0.03 0.04 0.08 0.10 0.09 0.09 0.10 0.08 0.06 0.05 0.04 0.02 0.02 0.07 0.10 0.09 0.06 0.04 0.04 0.03 0.03 0.03 0.02 0.01 0.01 0.02 0.03 0.02 0.02 0.03 0.05 0.05 0.05
0.00 0.01 0.01 0.01 0.01 0.01 0.00 0.00 0.01 0.01 0.01 0.02 0.04 0.06 0.04 0.02 0.02 0.02 0.03 0.03 0.01 0.02 0.05 0.07 0.08 0.11 0.13 0.10 0.06 0.05 0.05 0.06 0.04 0.03 0.03 0.04 0.04 0.05 0.09 0.11 0.11 0.09 0.08
0.00 0.00 0.01 0.01 0.01 0.01 0.01 0.01 0.01 0.01 0.01 0.01 0.01 0.01 0.01 0.00 0.00 0.01 0.01 0.01 0.00 0.01 0.03 0.04 0.04 0.05 0.09 0.10 0.07 0.05 0.05 0.06 0.07 0.10 0.08 0.14 0.17 0.18 0.21 0.24 0.22 0.18 0.14
0.00 0.00 0.00 0.00 0.01 0.01 0.01 0.01 0.01 0.01 0.01 0.00 0.00 0.00 0.00 0.00 0.00 0.00 0.01 0.02 0.01 0.01 0.01 0.01 0.02 0.03 0.07 0.08 0.10 0.10 0.09 0.05 0.03 0.03 0.12 0.16 0.18 0.30 0.43 0.47 0.43 0.37 0.30
0.01 0.01 0.00 0.00 0.01 0.01 0.01 0.00 0.00 0.00 0.00 0.00 0.00 0.00 0.00 0.00 0.01 0.02 0.03 0.06 0.05 0.04 0.02 0.02 0.02 0.03 0.05 0.06 0.11 0.17 0.13 0.05 0.01 0.00 0.03 0.06 0.12 0.31 0.51 0.55 0.59 0.61 0.53
0.01 0.00 0.00 0.00 0.00 0.00 0.00 0.00 0.00 0.00 0.00 0.00 0.02 0.02 0.01 0.01 0.01 0.02 0.02 0.09 0.18 0.20 0.15 0.17 0.16 0.11 0.09 0.07 0.24 0.33 0.10 0.04 0.02 0.01 0.01 0.05 0.14 0.28 0.47 0.52 0.57 0.67 0.66
0.00 0.00 0.00 0.00 0.00 0.00 0.00 0.00 0.00 0.00 0.00 0.00 0.00 0.01 0.01 0.01 0.01 0.01 0.04 0.07 0.13 0.16 0.25 0.34 0.28 0.20 0.20 0.18 0.20 0.17 0.02 0.02 0.01 0.01 0.02 0.13 0.30 0.41 0.52 0.57 0.54 0.57 0.59
0.00 0.00 0.00 0.00 0.00 0.00 0.00 0.00 0.00 0.00 0.00 0.00 0.00 0.00 0.00 0.01 0.02 0.06 0.12 0.13 0.17 0.15 0.19 0.18 0.20 0.11 0.07 0.06 0.05 0.05 0.03 0.03 0.03 0.07 0.12 0.11 0.25 0.44 0.62 0.69 0.61 0.58 0.55
0.00 0.00 0.00 0.00 0.00 0.00 0.00 0.00 0.00 0.00 0.00 0.00 0.00 0.00 0.00 0.01 0.04 0.11 0.14 0.16 0.10 0.11 0.12 0.11 0.09 0.10 0.09 0.07 0.04 0.04 0.04 0.03 0.03 0.11 0.20 0.18 0.34 0.45 0.51 0.66 0.70 0.67 0.62
0.00 0.00 0.00 0.00 0.00 0.01 0.01 0.00 0.00 0.00 0.00 0.00 0.00 0.00 0.00 0.01 0.08 0.13 0.16 0.18 0.12 0.12 0.16 0.18 0.14 0.21 0.14 0.09 0.06 0.03 0.02 0.01 0.01 0.02 0.08 0.10 0.14 0.23 0.29 0.44 0.63 0.66 0.65
0.00 0.00 0.00 0.00 0.00 0.01 0.01 0.01 0.01 0.00 0.00 0.00 0.00 0.01 0.02 0.05 0.14 0.15 0.16 0.17 0.19 0.17 0.23 0.24 0.22 0.21 0.14 0.10 0.08 0.04 0.03 0.02 0.02 0.02 0.01 0.03 0.05 0.07 0.14 0.28 0.45 0.54 0.52
0.01 0.01 0.01 0.01 0.01 0.03 0.04 0.04 0.04 0.03 0.02 0.02 0.01 0.01 0.04 0.09 0.18 0.23 0.19 0.19 0.24 0.25 0.29 0.32 0.29 0.23 0.21 0.13 0.07 0.03 0.04 0.05 0.03 0.02 0.01 0.02 0.02 0.03 0.06 0.17 0.35 0.44 0.49
0.05 0.04 0.04 0.04 0.04 0.09 0.14 0.17 0.18 0.17 0.12 0.08 0.06 0.06 0.11 0.19 0.27 0.37 0.29 0.26 0.21 0.27 0.28 0.19 0.28 0.28 0.26 0.18 0.04 0.03 0.05 0.08 0.07 0.05 0.03 0.02 0.02 0.03 0.03 0.10 0.22 0.27 0.38
0.15 0.16 0.15 0.14 0.16 0.30 0.46 0.47 0.41 0.37 0.29 0.24 0.19 0.20 0.27 0.36 0.41 0.48 0.39 0.32 0.24 0.34 0.35 0.25 0.28 0.27 0.22 0.17 0.05 0.04 0.05 0.05 0.05 0.05 0.04 0.04 0.04 0.03 0.04 0.07 0.13 0.12 0.17
0.31 0.33 0.38 0.48 0.57 0.77 0.75 0.65 0.64 0.66 0.61 0.56 0.47 0.42 0.41 0.40 0.42 0.50 0.42 0.44 0.37 0.35 0.38 0.30 0.34 0.34 0.29 0.26 0.17 0.10 0.03 0.03 0.04 0.06 0.09 0.10 0.06 0.04 0.04 0.05 0.08 0.10 0.18
0.74 0.88 0.97 1.03 1.24 1.29 1.14 1.10 1.12 1.10 1.01 1.00 0.86 0.68 0.52 0.46 0.47 0.47 0.55 0.45 0.42 0.42 0.46 0.49 0.44 0.32 0.26 0.31 0.29 0.26 0.17 0.14 0.12 0.11 0.21 0.22 0.14 0.09 0.07 0.07 0.07 0.07 0.15
0.72 0.85 1.06 1.33 1.57 1.65 1.61 1.58 1.51 1.46 1.33 1.21 0.98 0.80 0.65 0.53 0.50 0.54 0.59 0.55 0.48 0.45 0.48 0.59 0.49 0.41 0.38 0.40 0.42 0.41 0.37 0.30 0.17 0.06 0.07 0.14 0.18 0.16 0.13 0.09 0.07 0.07 0.08
0.53 0.71 1.03 1.33 1.55 1.67 1.71 1.62 1.60 1.57 1.47 1.33 1.05 0.81 0.68 0.60 0.61 0.65 0.63 0.59 0.57 0.55 0.54 0.49 0.40 0.55 0.53 0.48 0.54 0.55 0.55 0.45 0.34 0.20 0.12 0.11 0.15 0.18 0.19 0.15 0.10 0.09 0.07
0.77 0.93 1.09 1.27 1.45 1.55 1.55 1.51 1.46 1.38 1.28 1.17 0.94 0.76 0.67 0.63 0.62 0.59 0.57 0.70 0.80 0.72 0.64 0.57 0.53 0.57 0.55 0.53 0.55 0.57 0.63 0.61 0.51 0.42 0.26 0.17 0.11 0.10 0.13 0.12 0.09 0.09 0.07
0.96 1.11 1.24 1.33 1.49 1.56 1.43 1.29 1.25 1.23 1.15 1.02 0.87 0.74 0.61 0.55 0.53 0.52 0.59 0.72 0.77 0.73 0.68 0.58 0.53 0.58 0.57 0.55 0.56 0.57 0.60 0.56 0.61 0.62 0.46 0.29 0.16 0.07 0.07 0.09 0.10 0.09 0.07

GEFSSE_prec_meanprecacc_036.txt.gz
Total_Precipitation_Accumulation
0.00 0.00 0.04 0.02 0.01 0.00 0.00 0.02 0.04 0.06 0.09 0.09 0.08 0.09 0.09 0.07 0.07 0.07 0.04 0.02 0.01 0.01 0.04 0.05 0.06 0.06 0.05 0.05 0.04 0.02 0.01 0.00 0.00 0.00 0.01 0.00 0.00 0.00 0.00 0.00 0.00 0.00 0.00
0.00 0.00 0.03 0.02 0.01 0.00 0.01 0.02 0.03 0.03 0.05 0.08 0.08 0.11 0.12 0.08 0.07 0.06 0.04 0.02 0.01 0.01 0.02 0.03 0.03 0.04 0.05 0.04 0.03 0.01 0.00 0.00 0.00 0.00 0.00 0.00 0.00 0.00 0.00 0.00 0.00 0.00 0.00
0.00 0.01 0.02 0.02 0.01 0.00 0.01 0.03 0.04 0.03 0.02 0.03 0.06 0.09 0.11 0.13 0.10 0.06 0.04 0.02 0.01 0.01 0.01 0.01 0.01 0.02 0.02 0.02 0.01 0.01 0.00 0.00 0.00 0.00 0.00 0.00 0.00 0.00 0.00 0.00 0.00 0.00 0.00
0.00 0.00 0.01 0.01 0.01 0.00 0.01 0.02 0.04 0.04 0.03 0.04 0.09 0.10 0.09 0.10 0.09 0.08 0.07 0.04 0.04 0.02 0.01 0.01 0.01 0.01 0.01 0.00 0.00 0.00 0.00 0.00 0.00 0.00 0.01 0.02 0.02 0.00 0.00 0.00 0.00 0.00 0.00
0.00 0.00 0.00 0.01 0.01 0.01 0.01 0.02 0.04 0.06 0.05 0.06 0.09 0.10 0.07 0.08 0.09 0.08 0.10 0.10 0.07 0.04 0.02 0.01 0.01 0.01 0.01 0.01 0.00 0.00 0.00 0.00 0.00 0.00 0.02 0.05 0.06 0.02 0.00 0.01 0.01 0.01 0.00
0.00 0.00 0.00 0.01 0.01 0.00 0.01 0.01 0.03 0.05 0.06 0.07 0.09 0.09 0.09 0.11 0.10 0.07 0.09 0.10 0.07 0.04 0.02 0.04 0.04 0.03 0.02 0.01 0.01 0.01 0.01 0.01 0.01 0.01 0.01 0.02 0.06 0.04 0.01 0.03 0.05 0.06 0.04
0.00 0.00 0.01 0.01 0.01 0.00 0.00 0.01 0.01 0.02 0.03 0.04 0.08 0.10 0.09 0.09 0.10 0.08 0.06 0.05 0.04 0.02 0.02 0.07 0.10 0.09 0.06 0.04 0.04 0.04 0.03 0.04 0.02 0.01 0.01 0.03 0.05 0.03 0.03 0.10 0.15 0.14 0.13
0.00 0.01 0.01 0.01 0.01 0.01 0.00 0.00 0.01 0.01 0.02 0.02 0.04 0.06 0.04 0.02 0.02 0.02 0.03 0.03 0.02 0.02 0.05 0.07 0.08 0.11 0.14 0.11 0.08 0.07 0.06 0.06 0.05 0.04 0.03 0.05 0.04 0.06 0.10 0.19 0.24 0.21 0.21
0.00 0.00 0.01 0.01 0.01 0.01 0.01 0.01 0.01 0.01 0.01 0.01 0.01 0.01 0.01 0.00 0.01 0.01 0.01 0.01 0.01 0.01 0.03 0.05 0.04 0.05 0.09 0.10 0.08 0.07 0.07 0.07 0.08 0.11 0.08 0.15 0.17 0.18 0.23 0.30 0.33 0.30 0.26
0.00 0.00 0.00 0.00 0.01 0.01 0.01 0.01 0.01 0.01 0.01 0.01 0.00 0.00 0.00 0.00 0.00 0.00 0.01 0.03 0.02 0.02 0.02 0.03 0.02 0.04 0.07 0.08 0.10 0.11 0.09 0.06 0.04 0.04 0.13 0.16 0.18 0.30 0.44 0.51 0.51 0.47 0.39
0.01 0.01 0.00 0.00 0.01 0.01 0.01 0.00 0.00 0.00 0.01 0.01 0.01 0.00 0.00 0.00 0.01 0.02 0.03 0.07 0.07 0.07 0.06 0.07 0.07 0.06 0.06 0.07 0.12 0.18 0.13 0.05 0.01 0.01 0.04 0.07 0.12 0.32 0.53 0.59 0.64 0.67 0.62
0.01 0.01 0.00 0.00 0.00 0.00 0.00 0.00 0.00 0.00 0.00 0.00 0.02 0.02 0.01 0.02 0.02 0.02 0.02 0.09 0.20 0.25 0.24 0.25 0.24 0.17 0.15 0.15 0.32 0.37 0.13 0.05 0.02 0.02 0.03 0.06 0.16 0.32 0.54 0.57 0.62 0.74 0.75
0.00 0.00 0.00 0.00 0.00 0.00 0.00 0.00 0.00 0.00 0.01 0.00 0.01 0.01 0.01 0.01 0.01 0.01 0.04 0.08 0.14 0.19 0.30 0.42 0.39 0.29 0.30 0.29 0.28 0.22 0.04 0.03 0.03 0.03 0.04 0.15 0.32 0.46 0.62 0.65 0.61 0.64 0.67
0.00 0.00 0.00 0.00 0.00 0.00 0.00 0.00 0.00 0.00 0.00 0.00 0.00 0.00 0.00 0.01 0.02 0.06 0.12 0.14 0.18 0.17 0.26 0.29 0.30 0.17 0.11 0.08 0.08 0.07 0.05 0.07 0.06 0.11 0.17 0.12 0.27 0.46 0.69 0.78 0.68 0.64 0.60
0.00 0.00 0.00 0.00 0.00 0.01 0.00 0.00 0.00 0.00 0.00 0.00 0.00 0.00 0.00 0.01 0.04 0.11 0.14 0.17 0.11 0.13 0.17 0.19 0.14 0.13 0.11 0.08 0.05 0.05 0.05 0.04 0.06 0.16 0.24 0.19 0.35 0.46 0.55 0.72 0.77 0.73 0.67
0.00 0.00 0.00 0.00 0.00 0.01 0.01 0.00 0.00 0.00 0.00 0.00 0.00 0.00 0.00 0.01 0.08 0.13 0.16 0.19 0.15 0.15 0.20 0.24 0.18 0.24 0.17 0.11 0.07 0.04 0.03 0.02 0.02 0.04 0.10 0.11 0.15 0.24 0.31 0.49 0.70 0.72 0.70
0.00 0.00 0.00 0.00 0.00 0.01 0.01 0.01 0.01 0.00 0.00 0.00 0.00 0.01 0.02 0.05 0.15 0.18 0.19 0.20 0.23 0.21 0.28 0.30 0.28 0.26 0.17 0.12 0.09 0.04 0.03 0.03 0.03 0.03 0.02 0.04 0.05 0.07 0.14 0.30 0.50 0.59 0.57
0.01 0.01 0.01 0.01 0.01 0.03 0.04 0.05 0.04 0.03 0.03 0.02 0.02 0.03 0.07 0.13 0.23 0.31 0.25 0.25 0.34 0.32 0.36 0.43 0.40 0.31 0.28 0.18 0.10 0.04 0.04 0.05 0.03 0.02 0.02 0.02 0.03 0.03 0.06 0.17 0.38 0.48 0.54
0.05 0.04 0.04 0.04 0.04 0.09 0.14 0.18 0.18 0.18 0.13 0.09 0.09 0.12 0.20 0.29 0.38 0.51 0.41 0.40 0.38 0.40 0.42 0.29 0.41 0.46 0.41 0.32 0.11 0.06 0.05 0.08 0.07 0.05 0.03 0.02 0.03 0.03 0.03 0.11 0.23 0.29 0.42
0.16 0.17 0.15 0.14 0.17 0.31 0.47 0.47 0.42 0.38 0.30 0.27 0.25 0.30 0.40 0.53 0.58 0.68 0.56 0.51 0.44 0.52 0.57 0.50 0.54 0.49 0.38 0.31 0.11 0.06 0.06 0.05 0.05 0.05 0.04 0.04 0.04 0.03 0.04 0.07 0.14 0.12 0.18
0.33 0.35 0.40 0.52 0.61 0.80 0.81 0.71 0.71 0.73 0.71 0.67 0.60 0.56 0.58 0.59 0.62 0.72 0.61 0.68 0.61 0.57 0.63 0.58 0.59 0.55 0.45 0.41 0.24 0.13 0.04 0.03 0.04 0.06 0.09 0.10 0.06 0.04 0.04 0.05 0.09 0.12 0.21
0.78 0.92 1.02 1.09 1.33 1.39 1.27 1.26 1.31 1.33 1.25 1.23 1.10 0.94 0.78 0.69 0.70 0.70 0.80 0.70 0.65 0.65 0.69 0.73 0.67 0.49 0.39 0.42 0.38 0.32 0.18 0.14 0.12 0.11 0.21 0.22 0.14 0.10 0.08 0.08 0.08 0.12 0.19
0.77 0.91 1.13 1.41 1.68 1.77 1.79 1.84 1.80 1.77 1.63 1.51 1.32 1.17 0.99 0.85 0.78 0.79 0.85 0.81 0.71 0.67 0.69 0.81 0.69 0.56 0.48 0.50 0.50 0.49 0.41 0.32 0.18 0.06 0.07 0.15 0.20 0.20 0.16 0.13 0.09 0.09 0.12
0.60 0.80 1.12 1.41 1.65 1.81 1.92 1.92 1.95 1.94 1.86 1.76 1.52 1.26 1.09 0.95 0.93 0.94 0.89 0.83 0.80 0.76 0.71 0.63 0.52 0.65 0.61 0.55 0.60 0.61 0.62 0.52 0.40 0.23 0.13 0.14 0.20 0.22 0.23 0.18 0.12 0.11 0.11
0.83 1.00 1.18 1.35 1.55 1.69 1.73 1.75 1.79 1.73 1.68 1.60 1.38 1.18 1.05 0.99 0.95 0.90 0.84 0.93 0.98 0.86 0.74 0.65 0.59 0.64 0.60 0.57 0.58 0.61 0.67 0.68 0.60 0.50 0.29 0.21 0.17 0.15 0.19 0.18 0.15 0.14 0.13
0.98 1.15 1.29 1.39 1.55 1.64 1.53 1.40 1.39 1.40 1.39 1.29 1.16 1.04 0.92 0.84 0.82 0.80 0.84 0.92 0.93 0.83 0.75 0.63 0.57 0.62 0.60 0.58 0.58 0.60 0.63 0.61 0.68 0.72 0.53 0.35 0.22 0.11 0.12 0.14 0.15 0.14 0.14

GEFSSE_prec_meanprecacc_042.txt.gz
Total_Precipitation_Accumulation
0.00 0.00 0.04 0.03 0.01 0.01 0.01 0.02 0.04 0.06 0.09 0.09 0.08 0.09 0.09 0.07 0.07 0.07 0.04 0.02 0.01 0.01 0.04 0.05 0.06 0.06 0.05 0.05 0.04 0.02 0.01 0.00 0.00 0.00 0.01 0.00 0.00 0.00 0.00 0.00 0.02 0.00 0.00
0.00 0.00 0.03 0.02 0.01 0.01 0.01 0.02 0.03 0.03 0.05 0.08 0.09 0.11 0.12 0.08 0.07 0.06 0.04 0.02 0.01 0.01 0.02 0.03 0.03 0.04 0.05 0.04 0.03 0.01 0.00 0.00 0.00 0.00 0.00 0.00 0.00 0.00 0.00 0.00 0.01 0.00 0.00
0.00 0.01 0.02 0.02 0.01 0.01 0.01 0.03 0.04 0.03 0.02 0.03 0.06 0.10 0.12 0.13 0.10 0.06 0.04 0.02 0.01 0.01 0.01 0.01 0.01 0.02 0.02 0.02 0.01 0.01 0.00 0.00 0.00 0.00 0.00 0.01 0.00 0.00 0.00 0.00 0.00 0.00 0.00
0.00 0.00 0.01 0.01 0.01 0.01 0.01 0.02 0.04 0.05 0.03 0.04 0.09 0.10 0.09 0.11 0.09 0.08 0.07 0.04 0.04 0.02 0.01 0.01 0.01 0.01 0.01 0.00 0.00 0.00 0.00 0.00 0.00 0.00 0.01 0.05 0.03 0.01 0.00 0.00 0.00 0.00 0.00
0.00 0.00 0.00 0.01 0.01 0.01 0.01 0.02 0.05 0.06 0.05 0.06 0.09 0.10 0.07 0.08 0.09 0.09 0.10 0.10 0.08 0.04 0.02 0.01 0.01 0.01 0.01 0.01 0.00 0.00 0.00 0.00 0.00 0.00 0.02 0.05 0.07 0.02 0.00 0.01 0.01 0.01 0.00
0.00 0.00 0.00 0.01 0.01 0.01 0.01 0.01 0.03 0.05 0.06 0.07 0.09 0.09 0.09 0.11 0.10 0.07 0.09 0.10 0.08 0.04 0.02 0.04 0.04 0.03 0.02 0.01 0.01 0.01 0.01 0.01 0.01 0.01 0.01 0.03 0.09 0.06 0.01 0.03 0.06 0.06 0.05
0.00 0.00 0.01 0.01 0.01 0.01 0.01 0.01 0.01 0.02 0.03 0.04 0.08 0.10 0.09 0.09 0.10 0.08 0.06 0.05 0.04 0.02 0.02 0.07 0.10 0.09 0.06 0.04 0.04 0.04 0.03 0.04 0.02 0.01 0.01 0.03 0.07 0.04 0.03 0.11 0.17 0.16 0.15
0.00 0.01 0.01 0.01 0.01 0.01 0.01 0.01 0.01 0.01 0.02 0.02 0.04 0.06 0.05 0.02 0.02 0.03 0.03 0.04 0.02 0.02 0.05 0.08 0.08 0.11 0.14 0.11 0.08 0.07 0.06 0.06 0.05 0.04 0.03 0.06 0.05 0.06 0.12 0.20 0.26 0.24 0.25
0.00 0.00 0.01 0.01 0.01 0.01 0.01 0.01 0.01 0.01 0.01 0.01 0.01 0.01 0.01 0.01 0.01 0.01 0.01 0.01 0.01 0.01 0.03 0.05 0.04 0.05 0.10 0.10 0.08 0.07 0.07 0.07 0.08 0.11 0.08 0.15 0.18 0.19 0.24 0.30 0.34 0.32 0.29
0.00 0.00 0.00 0.00 0.01 0.01 0.01 0.01 0.01 0.01 0.01 0.01 0.01 0.01 0.00 0.00 0.00 0.01 0.02 0.03 0.02 0.02 0.03 0.03 0.03 0.04 0.08 0.09 0.10 0.11 0.09 0.06 0.04 0.04 0.13 0.16 0.19 0.31 0.44 0.51 0.51 0.48 0.41
0.01 0.01 0.00 0.00 0.01 0.01 0.01 0.00 0.00 0.00 0.01 0.01 0.01 0.00 0.00 0.01 0.02 0.04 0.03 0.07 0.07 0.07 0.07 0.08 0.08 0.06 0.07 0.08 0.14 0.19 0.14 0.06 0.02 0.01 0.04 0.07 0.13 0.32 0.54 0.59 0.65 0.68 0.63
0.01 0.01 0.00 0.00 0.00 0.00 0.00 0.00 0.00 0.00 0.00 0.00 0.03 0.03 0.03 0.04 0.06 0.03 0.03 0.11 0.21 0.26 0.24 0.26 0.26 0.18 0.18 0.23 0.52 0.50 0.15 0.07 0.03 0.02 0.03 0.06 0.16 0.32 0.54 0.58 0.63 0.75 0.76
0.00 0.00 0.00 0.00 0.00 0.00 0.00 0.00 0.00 0.00 0.02 0.01 0.02 0.04 0.06 0.06 0.03 0.02 0.04 0.08 0.15 0.19 0.32 0.48 0.47 0.33 0.41 0.43 0.43 0.33 0.07 0.05 0.04 0.03 0.05 0.15 0.32 0.46 0.63 0.66 0.62 0.64 0.67
0.00 0.00 0.00 0.00 0.00 0.00 0.00 0.00 0.00 0.00 0.01 0.00 0.01 0.01 0.02 0.03 0.05 0.06 0.13 0.14 0.19 0.19 0.30 0.35 0.40 0.24 0.16 0.13 0.11 0.10 0.06 0.07 0.07 0.12 0.18 0.13 0.27 0.47 0.70 0.79 0.68 0.65 0.61
0.00 0.00 0.00 0.00 0.00 0.01 0.01 0.00 0.00 0.00 0.00 0.00 0.00 0.01 0.01 0.03 0.05 0.11 0.15 0.18 0.11 0.14 0.21 0.25 0.17 0.18 0.16 0.10 0.05 0.05 0.05 0.04 0.06 0.16 0.25 0.20 0.35 0.46 0.55 0.73 0.78 0.74 0.68
0.00 0.00 0.00 0.00 0.00 0.01 0.01 0.00 0.00 0.00 0.00 0.00 0.00 0.00 0.01 0.02 0.08 0.15 0.17 0.21 0.16 0.16 0.23 0.28 0.20 0.30 0.20 0.14 0.08 0.04 0.03 0.02 0.02 0.04 0.10 0.12 0.15 0.24 0.31 0.50 0.71 0.74 0.71
0.00 0.00 0.00 0.00 0.00 0.01 0.01 0.01 0.01 0.00 0.00 0.00 0.00 0.01 0.03 0.05 0.17 0.20 0.22 0.23 0.26 0.24 0.32 0.34 0.33 0.30 0.22 0.16 0.12 0.06 0.04 0.03 0.03 0.03 0.02 0.04 0.05 0.07 0.14 0.32 0.52 0.60 0.59
0.01 0.01 0.01 0.01 0.01 0.03 0.04 0.05 0.04 0.03 0.03 0.02 0.02 0.03 0.08 0.14 0.27 0.37 0.31 0.29 0.41 0.38 0.44 0.53 0.47 0.41 0.41 0.28 0.16 0.08 0.05 0.07 0.04 0.03 0.02 0.02 0.03 0.03 0.07 0.19 0.40 0.49 0.56
0.05 0.04 0.04 0.04 0.04 0.09 0.15 0.18 0.18 0.18 0.13 0.10 0.11 0.14 0.22 0.32 0.44 0.62 0.50 0.52 0.52 0.53 0.55 0.38 0.56 0.70 0.64 0.52 0.22 0.12 0.07 0.10 0.08 0.06 0.05 0.04 0.03 0.03 0.04 0.12 0.24 0.31 0.44
0.16 0.17 0.16 0.15 0.19 0.34 0.50 0.50 0.44 0.39 0.31 0.28 0.28 0.35 0.46 0.63 0.71 0.84 0.68 0.67 0.62 0.70 0.74 0.68 0.76 0.73 0.62 0.57 0.27 0.16 0.13 0.12 0.09 0.06 0.04 0.04 0.04 0.03 0.04 0.07 0.16 0.15 0.22
0.33 0.36 0.44 0.58 0.71 0.92 0.93 0.80 0.81 0.81 0.79 0.75 0.68 0.64 0.69 0.72 0.78 0.90 0.77 0.87 0.81 0.76 0.82 0.79 0.85 0.86 0.76 0.73 0.53 0.34 0.16 0.08 0.07 0.08 0.10 0.10 0.07 0.04 0.04 0.05 0.09 0.15 0.25
0.79 0.96 1.09 1.20 1.47 1.55 1.44 1.42 1.45 1.49 1.37 1.34 1.22 1.06 0.90 0.82 0.86 0.87 1.00 0.89 0.86 0.87 0.92 1.00 0.99 0.84 0.71 0.83 0.78 0.69 0.45 0.29 0.18 0.15 0.25 0.26 0.15 0.10 0.08 0.08 0.09 0.14 0.22
0.79 0.95 1.19 1.52 1.82 1.94 1.99 2.04 1.96 1.94 1.74 1.65 1.49 1.33 1.14 1.00 0.94 0.96 1.03 0.99 0.91 0.90 0.92 1.06 0.99 0.91 0.82 0.89 0.94 0.90 0.76 0.57 0.34 0.15 0.13 0.17 0.22 0.21 0.17 0.13 0.09 0.11 0.16
0.62 0.81 1.15 1.48 1.76 1.95 2.09 2.10 2.11 2.10 1.99 1.92 1.75 1.49 1.26 1.11 1.10 1.11 1.07 1.02 0.98 0.95 0.92 0.87 0.81 1.00 0.95 0.86 0.96 0.98 0.94 0.80 0.63 0.35 0.22 0.20 0.23 0.25 0.26 0.20 0.14 0.13 0.17
0.83 1.01 1.20 1.39 1.61 1.77 1.84 1.86 1.90 1.84 1.80 1.74 1.57 1.36 1.21 1.13 1.08 1.01 0.97 1.09 1.13 1.03 0.94 0.88 0.87 0.94 0.93 0.90 0.93 0.97 1.00 0.97 0.85 0.67 0.39 0.30 0.22 0.18 0.22 0.21 0.19 0.19 0.20
0.98 1.15 1.30 1.40 1.58 1.69 1.60 1.48 1.48 1.48 1.50 1.42 1.31 1.20 1.09 1.00 0.95 0.91 0.95 1.05 1.06 1.01 0.95 0.86 0.82 0.88 0.89 0.88 0.88 0.90 0.91 0.85 0.91 0.91 0.64 0.45 0.30 0.16 0.15 0.19 0.21 0.21 0.21

GEFSSE_prec_meanprecacc_048.txt.gz
Total_Precipitation_Accumulation
0.00 0.00 0.04 0.03 0.01 0.01 0.01 0.02 0.04 0.06 0.09 0.09 0.08 0.09 0.09 0.07 0.07 0.07 0.04 0.02 0.01 0.01 0.04 0.05 0.06 0.06 0.05 0.05 0.04 0.02 0.01 0.00 0.00 0.00 0.01 0.00 0.00 0.00 0.00 0.00 0.02 0.00 0.00
0.00 0.00 0.03 0.02 0.01 0.01 0.01 0.03 0.03 0.03 0.05 0.08 0.09 0.11 0.12 0.08 0.07 0.06 0.04 0.02 0.01 0.01 0.02 0.03 0.03 0.04 0.05 0.04 0.03 0.01 0.00 0.00 0.00 0.00 0.00 0.00 0.00 0.00 0.00 0.00 0.01 0.00 0.00
0.00 0.01 0.02 0.02 0.01 0.01 0.01 0.03 0.04 0.03 0.02 0.03 0.06 0.10 0.12 0.13 0.10 0.06 0.04 0.02 0.01 0.01 0.01 0.01 0.01 0.02 0.02 0.02 0.01 0.01 0.00 0.00 0.00 0.00 0.00 0.01 0.00 0.00 0.00 0.00 0.00 0.00 0.00
0.00 0.00 0.01 0.01 0.01 0.01 0.01 0.02 0.04 0.05 0.03 0.04 0.09 0.10 0.09 0.11 0.09 0.08 0.07 0.04 0.04 0.02 0.01 0.01 0.01 0.01 0.01 0.00 0.00 0.00 0.00 0.00 0.00 0.00 0.01 0.05 0.03 0.01 0.00 0.00 0.00 0.00 0.00
0.00 0.00 0.00 0.01 0.01 0.01 0.01 0.02 0.05 0.07 0.05 0.06 0.09 0.10 0.07 0.08 0.10 0.09 0.10 0.10 0.08 0.04 0.02 0.01 0.01 0.01 0.01 0.01 0.00 0.00 0.00 0.00 0.00 0.00 0.02 0.06 0.07 0.03 0.01 0.01 0.01 0.01 0.00
0.00 0.00 0.00 0.01 0.01 0.01 0.01 0.01 0.03 0.05 0.07 0.07 0.09 0.09 0.09 0.11 0.10 0.07 0.09 0.10 0.08 0.04 0.02 0.04 0.04 0.03 0.02 0.01 0.01 0.01 0.01 0.01 0.01 0.01 0.01 0.03 0.10 0.07 0.03 0.05 0.07 0.06 0.05
0.00 0.00 0.01 0.01 0.01 0.01 0.01 0.01 0.01 0.02 0.03 0.05 0.08 0.10 0.09 0.09 0.10 0.08 0.06 0.05 0.04 0.02 0.02 0.07 0.10 0.09 0.06 0.04 0.04 0.04 0.03 0.04 0.02 0.01 0.01 0.04 0.09 0.06 0.07 0.14 0.19 0.17 0.16
0.00 0.01 0.01 0.01 0.01 0.01 0.01 0.01 0.01 0.01 0.02 0.02 0.04 0.06 0.05 0.02 0.02 0.03 0.03 0.04 0.02 0.02 0.05 0.08 0.08 0.11 0.14 0.11 0.08 0.07 0.06 0.06 0.05 0.04 0.03 0.06 0.06 0.08 0.16 0.24 0.29 0.26 0.26
0.00 0.00 0.01 0.01 0.01 0.01 0.01 0.01 0.01 0.01 0.01 0.01 0.01 0.01 0.01 0.01 0.01 0.01 0.01 0.01 0.01 0.01 0.03 0.05 0.04 0.05 0.10 0.10 0.08 0.07 0.07 0.07 0.08 0.11 0.08 0.15 0.19 0.22 0.31 0.36 0.37 0.34 0.30
0.00 0.00 0.00 0.00 0.01 0.01 0.01 0.01 0.01 0.01 0.01 0.01 0.01 0.01 0.00 0.00 0.00 0.01 0.02 0.03 0.02 0.02 0.03 0.03 0.03 0.04 0.08 0.09 0.10 0.11 0.09 0.06 0.04 0.04 0.13 0.16 0.20 0.37 0.53 0.58 0.55 0.50 0.43
0.01 0.01 0.00 0.00 0.01 0.01 0.01 0.00 0.00 0.00 0.01 0.01 0.01 0.00 0.00 0.01 0.02 0.04 0.03 0.07 0.07 0.07 0.07 0.08 0.08 0.07 0.07 0.08 0.15 0.21 0.15 0.06 0.02 0.01 0.04 0.07 0.14 0.37 0.62 0.66 0.69 0.72 0.65
0.01 0.01 0.00 0.00 0.00 0.00 0.00 0.00 0.00 0.00 0.00 0.00 0.03 0.03 0.03 0.04 0.06 0.03 0.03 0.11 0.21 0.26 0.24 0.26 0.26 0.18 0.18 0.23 0.52 0.52 0.15 0.07 0.04 0.03 0.03 0.07 0.17 0.37 0.61 0.63 0.68 0.78 0.77
0.00 0.00 0.00 0.00 0.00 0.00 0.00 0.00 0.00 0.00 0.02 0.01 0.02 0.04 0.06 0.06 0.03 0.02 0.04 0.09 0.15 0.20 0.32 0.48 0.47 0.33 0.41 0.43 0.43 0.33 0.07 0.05 0.06 0.06 0.06 0.15 0.34 0.50 0.68 0.70 0.65 0.67 0.69
0.00 0.00 0.00 0.00 0.00 0.00 0.00 0.00 0.00 0.00 0.01 0.00 0.01 0.01 0.02 0.03 0.05 0.06 0.13 0.14 0.19 0.19 0.31 0.35 0.40 0.24 0.16 0.13 0.12 0.10 0.06 0.08 0.10 0.15 0.20 0.13 0.28 0.49 0.74 0.83 0.72 0.67 0.63
0.00 0.00 0.00 0.00 0.00 0.01 0.01 0.01 0.00 0.00 0.00 0.00 0.00 0.01 0.01 0.03 0.05 0.11 0.15 0.18 0.11 0.14 0.21 0.26 0.17 0.18 0.16 0.11 0.07 0.07 0.07 0.07 0.10 0.20 0.28 0.21 0.37 0.49 0.59 0.78 0.83 0.78 0.71
0.00 0.00 0.00 0.00 0.00 0.01 0.01 0.00 0.00 0.00 0.00 0.00 0.00 0.01 0.01 0.02 0.08 0.15 0.17 0.21 0.16 0.16 0.23 0.29 0.21 0.32 0.23 0.17 0.12 0.08 0.07 0.07 0.07 0.10 0.14 0.15 0.18 0.26 0.33 0.56 0.79 0.81 0.78
0.02 0.01 0.01 0.00 0.01 0.02 0.01 0.01 0.01 0.01 0.00 0.00 0.00 0.01 0.03 0.05 0.17 0.21 0.22 0.23 0.27 0.24 0.33 0.36 0.35 0.34 0.26 0.21 0.18 0.12 0.11 0.11 0.10 0.11 0.11 0.14 0.12 0.12 0.19 0.38 0.60 0.70 0.67
0.04 0.04 0.04 0.03 0.03 0.05 0.08 0.07 0.06 0.05 0.04 0.03 0.03 0.03 0.08 0.16 0.28 0.39 0.32 0.30 0.42 0.40 0.47 0.59 0.55 0.49 0.48 0.36 0.24 0.16 0.15 0.16 0.15 0.15 0.16 0.19 0.16 0.11 0.14 0.27 0.48 0.57 0.65
0.11 0.11 0.11 0.11 0.13 0.20 0.29 0.33 0.26 0.22 0.16 0.13 0.13 0.17 0.25 0.36 0.48 0.66 0.53 0.54 0.56 0.57 0.61 0.46 0.64 0.78 0.73 0.61 0.33 0.21 0.16 0.18 0.17 0.16 0.16 0.16 0.16 0.16 0.13 0.18 0.31 0.40 0.55
0.25 0.25 0.25 0.29 0.43 0.66 0.87 0.80 0.61 0.51 0.41 0.35 0.34 0.41 0.53 0.71 0.80 0.93 0.76 0.74 0.70 0.78 0.81 0.76 0.85 0.82 0.71 0.67 0.37 0.23 0.20 0.19 0.16 0.14 0.14 0.14 0.12 0.12 0.14 0.18 0.25 0.22 0.29
0.45 0.48 0.60 0.82 1.08 1.38 1.35 1.14 1.08 1.03 0.97 0.87 0.78 0.75 0.80 0.83 0.93 1.07 0.92 1.01 0.96 0.90 0.94 0.92 0.98 0.98 0.86 0.85 0.65 0.43 0.22 0.13 0.12 0.13 0.17 0.17 0.14 0.13 0.13 0.15 0.20 0.23 0.31
0.87 1.09 1.24 1.42 1.80 1.94 1.80 1.73 1.71 1.71 1.53 1.49 1.38 1.23 1.05 0.96 1.02 1.05 1.18 1.06 1.05 1.04 1.06 1.12 1.12 0.96 0.81 0.97 0.95 0.86 0.57 0.38 0.25 0.20 0.32 0.37 0.32 0.27 0.21 0.19 0.18 0.23 0.30
0.83 1.03 1.30 1.65 1.99 2.14 2.19 2.23 2.16 2.15 1.91 1.81 1.68 1.53 1.33 1.18 1.12 1.16 1.22 1.19 1.11 1.09 1.06 1.19 1.14 1.05 0.97 1.05 1.12 1.10 0.94 0.70 0.45 0.22 0.27 0.37 0.45 0.46 0.39 0.28 0.20 0.20 0.24
0.65 0.87 1.20 1.53 1.82 2.01 2.16 2.21 2.24 2.24 2.12 2.07 1.95 1.66 1.41 1.26 1.26 1.29 1.25 1.22 1.19 1.14 1.07 1.01 0.97 1.19 1.17 1.06 1.17 1.18 1.13 0.96 0.79 0.46 0.39 0.45 0.49 0.50 0.51 0.40 0.29 0.24 0.25
0.84 1.02 1.22 1.41 1.63 1.79 1.87 1.91 1.96 1.91 1.87 1.83 1.69 1.46 1.31 1.25 1.22 1.15 1.14 1.27 1.30 1.19 1.11 1.07 1.08 1.16 1.16 1.11 1.13 1.19 1.24 1.20 1.08 0.85 0.53 0.44 0.42 0.41 0.44 0.37 0.33 0.30 0.25
0.99 1.15 1.30 1.41 1.59 1.71 1.61 1.50 1.49 1.51 1.54 1.47 1.37 1.27 1.16 1.10 1.05 1.00 1.06 1.18 1.21 1.17 1.11 1.03 1.01 1.09 1.10 1.10 1.10 1.12 1.14 1.09 1.13 1.13 0.82 0.58 0.41 0.24 0.25 0.31 0.32 0.28 0.25